Theta_e
306 306 307 307 307 307 305 304 306 306 305 305 303 302 303 303 301 301 301 300 300 298 298 297 296 297 296 295 295 295 295 294 294 294 294 293 292 292 292 292 292 292 293 293
307 308 307 309 307 307 306 305 303 304 304 303 304 303 303 302 302 303 302 300 299 298 298 296 296 296 295 295 295 294 294 293 293 292 292 291 291 292 292 292 293 293 293 293
309 305 307 307 308 308 308 305 306 306 305 305 305 304 303 303 301 301 300 299 298 298 297 296 296 295 295 294 294 293 293 293 291 291 291 291 291 291 292 293 293 293 294 294
303 304 306 303 305 305 307 307 305 306 306 305 305 303 302 300 300 300 299 299 297 298 297 297 296 295 294 294 293 293 292 291 292 291 291 291 291 292 293 293 293 294 294 294
303 303 303 306 305 305 306 307 305 306 305 305 304 302 302 302 301 300 299 299 299 297 297 295 295 294 293 293 292 291 291 291 291 291 291 291 291 292 293 293 294 294 294 295
302 300 302 302 305 303 302 304 305 305 305 303 302 300 299 300 299 300 301 300 298 297 296 295 294 293 292 292 291 291 291 291 291 291 291 291 292 293 293 293 294 295 295 295
301 300 303 303 305 303 306 303 305 304 303 303 302 300 299 299 300 300 300 299 297 295 295 294 293 292 292 291 291 291 291 290 291 291 291 292 293 293 294 294 294 294 295 295
299 301 304 304 302 306 302 302 303 302 302 301 300 300 300 299 298 298 298 297 296 295 294 294 292 292 291 290 290 291 290 291 291 291 292 292 293 294 294 294 294 295 295 297
302 303 302 302 303 301 300 300 301 301 300 299 299 299 298 298 297 297 297 296 295 294 293 293 292 291 291 290 291 290 290 291 291 292 292 293 293 294 294 294 295 296 298 297
304 304 303 300 301 301 301 301 300 299 299 298 298 297 297 296 296 296 296 295 294 293 292 292 292 291 291 290 290 290 290 291 291 292 293 292 293 294 294 294 295 298 297 298
302 302 301 301 300 300 300 300 299 298 298 298 297 297 296 296 296 296 295 294 294 293 292 292 292 291 290 290 290 290 291 291 292 292 292 293 293 294 294 295 297 297 297 298
304 301 300 299 299 299 299 300 299 298 297 297 297 296 296 295 296 295 295 294 293 293 292 292 291 290 290 290 290 290 290 291 291 292 292 293 293 293 293 295 296 296 296 297
302 298 298 297 299 300 300 300 299 299 297 296 297 297 296 296 296 296 296 293 293 292 292 292 290 290 290 290 290 290 291 291 291 291 293 293 293 293 294 294 294 294 295 296
297 297 299 299 300 300 299 300 299 299 298 298 297 297 296 296 296 295 294 293 293 292 292 291 290 290 290 290 289 291 291 291 291 292 292 292 293 293 294 294 294 294 294 295
297 299 297 298 299 299 299 299 298 297 297 297 298 296 296 295 294 295 294 293 292 292 292 291 290 290 290 289 289 290 291 290 291 292 292 292 293 293 293 293 293 293 294 294
297 298 298 298 298 298 297 297 297 296 296 297 296 297 296 296 295 294 294 293 292 291 292 290 290 290 290 289 289 291 290 290 291 292 292 292 292 293 293 292 293 293 293 293
297 298 297 297 296 296 295 295 295 295 296 296 297 298 296 295 294 293 293 292 292 292 291 291 290 290 290 289 290 292 289 290 291 290 291 292 292 292 292 292 293 293 293 293
297 298 296 295 295 295 295 295 296 296 296 297 297 297 295 294 293 293 293 293 292 291 292 291 291 291 289 289 291 291 289 290 290 290 291 291 292 292 292 292 292 292 292 291
298 298 298 296 297 295 295 295 296 297 297 297 297 296 296 295 295 294 293 292 291 291 291 291 291 289 288 290 291 290 289 290 290 290 291 291 291 291 292 291 292 292 292 291
298 298 298 297 297 296 296 297 297 296 297 296 296 296 295 296 295 293 292 291 292 291 291 291 290 288 290 290 291 289 289 289 290 289 290 291 291 291 291 292 292 292 291 290
295 296 295 295 296 297 297 297 296 295 297 297 296 296 295 296 295 293 292 291 292 291 291 291 290 289 290 290 289 290 289 289 290 289 290 290 290 290 291 291 292 292 291 291
295 295 296 296 295 295 297 297 296 296 297 297 297 296 295 295 295 293 292 292 292 291 291 291 289 290 291 290 288 289 288 289 289 289 290 289 290 290 290 290 291 291 291 291
296 295 296 296 295 296 296 297 297 296 296 297 297 297 295 296 294 292 290 293 292 291 291 290 290 290 290 288 288 289 288 288 289 289 289 289 289 289 289 290 291 291 291 291
296 296 296 297 297 296 294 297 296 297 296 297 297 297 296 296 295 293 293 292 292 291 291 290 290 289 289 287 288 289 288 288 289 289 289 288 288 288 288 289 290 291 290 291
296 296 296 296 295 295 295 296 296 298 297 297 298 298 297 296 294 294 293 292 292 291 291 290 289 288 287 287 287 288 288 288 288 288 289 289 288 288 287 288 289 290 289 289
296 296 296 296 295 296 296 296 296 295 295 296 296 297 297 296 294 293 292 292 291 291 290 289 288 287 287 287 287 287 287 287 287 288 288 288 288 288 287 288 288 288 288 288
296 296 296 296 296 297 296 295 295 294 294 294 295 296 297 295 294 293 292 292 291 290 290 288 287 287 287 286 287 287 287 287 286 286 287 288 288 288 287 287 287 288 288 287
Wind_Speed
3 4 2 3 5 4 5 4 5 5 6 4 3 4 3 4 6 6 6 6 2 3 7 6 5 7 11 14 16 17 19 25 27 29 32 36 35 32 32 32 30 34 34 33
2 2 4 4 5 6 5 4 7 5 5 1 1 0 4 5 3 2 4 6 7 8 9 7 6 10 14 16 18 19 22 24 27 34 33 32 32 32 33 29 35 33 33 33
4 5 6 6 3 2 2 3 3 5 3 2 2 4 5 5 5 6 6 8 9 8 9 6 7 11 14 16 18 19 20 26 29 31 32 30 32 32 30 33 33 33 33 34
2 4 1 4 1 3 4 1 4 4 3 2 3 5 8 6 6 7 7 8 9 12 7 6 8 12 14 17 18 20 25 27 29 31 29 31 32 31 32 33 33 33 33 34
2 2 6 1 4 5 4 5 5 3 1 2 4 4 5 3 2 6 8 14 17 8 5 6 10 12 14 16 19 23 27 29 30 31 31 32 31 31 33 33 33 33 33 33
2 3 5 4 2 3 4 4 3 2 1 3 4 5 4 5 7 12 19 20 9 5 4 7 10 11 14 19 21 25 26 30 32 32 30 31 31 32 33 33 31 31 33 34
2 2 8 6 3 2 3 5 2 0 2 3 2 5 6 9 9 19 20 11 5 3 6 10 11 13 17 20 22 24 28 32 33 32 30 29 31 31 30 32 30 31 31 32
3 1 7 4 5 5 4 3 2 0 2 3 5 7 8 9 9 15 14 5 3 5 8 10 10 13 16 18 23 25 30 32 33 31 26 29 29 32 31 28 26 28 27 27
8 5 4 0 4 3 4 4 1 1 4 4 6 6 8 8 8 13 8 4 4 6 10 10 11 14 17 21 22 28 30 32 33 26 27 26 28 30 28 26 24 25 20 25
2 3 4 5 2 3 2 3 4 2 5 5 7 7 8 7 7 8 5 5 6 10 11 13 14 16 17 19 24 27 30 31 26 27 29 27 27 26 24 24 25 19 22 23
4 3 4 2 3 4 3 1 2 5 5 5 5 7 6 6 8 7 6 7 9 9 11 14 15 17 17 20 24 27 28 27 24 25 26 26 25 26 26 26 26 24 22 24
5 5 4 3 5 5 5 2 1 4 7 11 4 7 10 8 8 7 8 9 9 11 12 14 16 18 18 22 22 25 24 22 25 25 26 23 25 27 24 22 22 22 23 25
3 4 3 7 6 4 2 1 2 3 3 5 11 11 12 8 8 9 8 9 11 13 14 14 15 14 19 22 23 25 22 23 25 24 24 24 24 23 22 24 22 20 23 23
5 7 3 4 4 4 3 3 4 6 8 9 11 12 13 11 11 10 11 11 11 13 13 14 14 15 19 21 23 24 23 25 23 23 23 23 22 22 20 18 18 21 22 20
6 2 4 5 4 3 5 3 5 7 8 11 13 12 14 12 12 14 11 11 12 14 12 14 12 17 19 21 22 23 24 24 23 23 23 24 22 20 19 18 17 18 20 19
4 2 3 4 6 5 4 6 5 8 9 13 12 16 15 13 14 12 11 10 12 14 13 13 13 17 19 21 22 22 24 21 22 23 23 22 21 18 17 17 17 16 16 17
6 4 5 5 7 7 7 9 9 10 14 15 19 17 15 13 13 13 13 10 10 11 11 13 13 17 18 20 21 16 22 21 22 24 22 21 19 17 17 17 16 15 16 20
7 6 8 8 7 6 7 11 15 18 16 21 18 14 14 13 14 17 12 9 10 11 10 9 12 15 17 18 19 19 19 19 21 21 22 20 18 18 17 17 16 16 16 17
13 11 12 9 15 13 13 16 18 18 19 21 15 14 15 17 16 15 10 9 9 9 11 8 11 14 14 17 16 19 17 19 20 21 21 20 19 18 18 17 16 16 18 17
6 8 10 12 13 11 13 17 16 17 20 20 14 13 14 17 15 12 9 11 10 10 9 8 12 14 13 14 14 16 15 18 19 20 21 19 18 17 18 18 17 17 17 17
4 6 8 10 13 16 16 17 17 18 19 16 12 15 16 17 14 11 9 10 9 7 6 6 12 12 14 12 14 12 14 17 17 19 19 20 19 18 18 17 18 15 16 18
4 6 11 14 14 16 20 16 16 15 15 16 15 16 15 17 14 12 13 14 9 4 3 7 10 10 12 12 12 11 13 14 16 18 18 19 19 18 18 17 16 16 16 18
10 11 12 13 15 16 17 17 17 14 13 13 14 17 17 17 15 10 9 9 7 4 3 5 8 9 10 12 10 11 12 13 15 15 17 18 19 20 20 19 20 18 20 17
11 13 14 14 13 13 11 18 15 13 10 12 15 15 14 16 15 11 12 8 6 5 5 4 6 7 8 9 9 10 11 13 13 14 14 16 18 20 20 19 21 21 23 17
14 14 13 12 11 14 14 12 12 13 14 15 16 15 13 11 10 6 8 8 5 5 5 4 5 6 8 8 8 8 10 11 13 13 14 13 14 17 19 20 19 19 23 18
11 12 12 10 10 7 7 8 11 17 17 18 20 16 14 10 7 8 8 6 4 5 3 3 4 6 6 7 7 8 9 10 11 12 12 14 15 12 17 19 18 18 18 19
15 8 6 6 3 1 5 11 14 17 19 17 20 19 14 8 7 9 8 7 6 4 3 3 3 4 6 6 6 7 8 9 10 11 12 13 14 12 12 15 17 17 18 19
Wind_Direction
248 254 280 248 248 219 204 191 192 240 216 319 0 76 56 358 358 9 4 355 331 237 241 249 284 308 321 326 329 329 323 324 325 324 322 321 320 312 306 302 298 299 295 292
286 14 1 277 263 247 230 213 250 243 266 357 134 271 352 345 342 349 303 277 266 258 252 254 288 319 326 326 330 329 324 324 325 323 323 320 313 307 304 303 304 300 296 294
274 354 330 311 218 225 220 182 203 208 191 198 287 327 313 311 248 261 281 285 278 276 267 272 307 320 321 325 327 324 323 324 326 328 322 314 309 305 302 307 303 301 299 296
248 5 350 240 304 245 186 133 132 122 190 245 289 286 287 270 254 284 293 285 284 277 258 291 311 323 325 326 326 325 324 326 327 325 313 310 307 303 304 306 304 303 300 298
125 205 289 275 179 188 172 256 192 167 14 314 302 313 286 265 271 282 280 287 290 261 260 300 325 325 324 326 326 326 330 329 325 318 311 308 306 308 309 307 306 304 301 298
122 142 219 247 188 109 90 284 143 134 317 300 350 346 261 309 311 302 305 311 268 255 288 312 324 326 327 329 331 333 333 327 323 316 311 308 307 308 308 307 305 305 301 300
148 230 285 244 170 114 88 239 160 80 314 294 276 225 286 305 304 307 308 295 233 267 315 330 331 332 329 330 330 330 331 329 326 320 313 312 309 311 310 310 309 305 302 302
91 86 288 177 82 175 196 200 142 320 310 308 289 295 292 294 294 305 300 251 267 304 319 322 322 324 322 324 332 331 332 329 324 321 320 317 315 315 314 311 308 304 304 309
181 215 246 212 136 154 149 143 153 13 335 304 285 277 294 286 293 302 289 280 296 310 314 317 323 328 327 332 333 331 330 328 325 323 323 320 321 316 315 315 310 309 318 321
88 246 193 142 109 102 88 72 31 326 287 289 274 291 296 293 300 305 290 293 309 314 311 315 329 332 333 333 333 329 328 326 322 327 325 326 323 317 314 313 312 320 330 323
256 275 70 350 134 113 78 98 254 277 243 271 274 287 278 292 303 296 293 297 303 301 304 317 329 330 334 334 334 331 332 326 322 324 324 322 321 320 320 317 325 337 338 339
231 205 154 185 162 165 167 174 344 6 341 338 316 302 306 294 289 271 274 288 294 301 312 321 327 329 333 336 336 335 332 329 328 326 322 324 323 323 326 328 339 343 345 351
228 156 139 144 164 174 164 75 329 300 288 287 317 313 313 291 286 286 282 294 303 311 316 319 325 326 334 337 336 339 330 329 327 324 322 325 325 323 327 338 349 351 348 357
153 120 90 170 194 184 223 265 294 302 306 300 300 311 317 290 286 283 284 296 304 311 315 318 324 327 335 339 339 342 331 333 325 319 327 324 324 326 331 334 333 335 345 356
188 225 172 147 152 223 233 261 297 292 287 295 312 307 312 295 277 281 291 298 304 311 315 321 319 326 336 340 338 338 336 332 327 328 329 328 329 329 331 332 334 332 342 6
183 132 126 178 218 251 265 281 257 274 281 286 290 301 309 297 283 280 288 291 303 309 315 320 312 329 335 337 336 338 336 334 333 331 327 329 331 333 336 336 335 338 348 350
144 196 211 223 227 248 241 254 253 265 279 281 284 303 306 293 282 276 277 288 300 302 310 313 311 330 333 334 336 338 340 334 336 333 331 333 333 336 338 341 340 347 353 6
216 210 211 216 229 241 266 271 277 282 273 285 295 298 297 286 268 277 278 289 305 305 316 314 321 328 330 335 340 341 345 336 334 334 334 336 341 346 346 347 348 355 2 6
225 249 272 277 272 267 269 271 281 293 294 293 290 288 295 292 282 277 274 284 295 301 320 314 324 326 333 337 338 340 348 341 340 341 340 345 349 353 353 351 355 2 5 5
219 230 254 269 284 280 282 294 297 299 299 300 285 281 288 295 290 265 259 270 282 297 299 306 321 330 335 338 343 346 348 345 341 344 345 349 348 351 358 360 2 4 8 1
278 277 280 291 294 297 291 293 298 291 298 303 278 277 287 299 297 263 246 263 290 307 293 305 322 330 337 340 345 347 345 348 346 349 348 349 348 354 357 359 352 6 3 355
319 306 293 292 292 294 300 303 302 292 295 297 294 285 286 291 294 263 252 257 282 295 286 315 327 333 332 342 343 348 348 350 350 356 354 358 357 354 353 357 353 353 355 359
279 281 287 297 299 303 307 307 308 302 294 295 297 295 288 291 294 250 250 262 244 222 263 313 332 324 329 339 344 350 350 353 354 358 2 3 5 4 1 2 3 3 3 4
285 294 298 307 312 311 302 315 318 312 304 300 301 303 293 294 298 266 246 243 248 231 239 309 328 329 331 341 345 348 354 353 350 356 360 6 8 8 10 14 10 5 5 21
286 291 299 306 310 301 316 324 321 329 331 319 311 307 298 291 268 284 240 235 241 215 225 293 310 328 338 342 343 347 349 353 352 355 355 356 2 9 14 20 17 15 17 34
299 299 299 306 304 311 339 348 342 333 329 323 315 316 317 290 255 222 215 219 214 210 231 271 310 329 338 341 343 350 350 351 354 354 358 8 5 7 19 19 21 24 23 26
306 299 307 312 278 296 338 334 327 319 320 319 310 307 311 284 230 212 212 213 201 208 221 250 304 328 336 341 348 354 355 358 2 358 1 4 6 3 15 20 21 26 27 27